When you browse on this site, cookies collect data to enhance your experience and personalize the content and advertising you see.
Visit our Privacy Policy to learn more. By continuing to use the site, you agree to this use of cookies and data.
  • In Denmark
  • List of Countries
  • For 7 days
  • Water Temperature
  • Satellite Maps
  • Weather Map
  • Weather Widgets
  • user-avatar
    Login

    Hourly Weather Newcastle

    Today, 26 June, Wednesday

    Time Temperature Precipitation Wind Pressure Humidity
    00:00 +12°C° 0.5 mm 3 mps 773 mmHg 93%
    01:00 +12°C° 0.5 mm 3 mps 773 mmHg 93%
    02:00 +12°C° 0.4 mm 3 mps 773 mmHg 93%
    03:00 +12°C° 0.4 mm 3 mps 774 mmHg 93%
    04:00 +13°C° 0 mm 2 mps 774 mmHg 92%
    05:00 +13°C° 0.2 mm 2 mps 774 mmHg 92%
    06:00 +12°C° 0.2 mm 3 mps 774 mmHg 91%
    07:00 +13°C° 0.2 mm 3 mps 774 mmHg 91%
    08:00 +14°C° 0.1 mm 3 mps 774 mmHg 87%
    09:00 +16°C° 0.1 mm 3 mps 775 mmHg 83%
    10:00 +18°C° 0 mm 3 mps 775 mmHg 80%
    11:00 +18°C° 0.1 mm 3 mps 774 mmHg 73%
    12:00 +19°C° 0.1 mm 4 mps 774 mmHg 66%
    13:00 +19°C° 0.1 mm 4 mps 773 mmHg 59%
    14:00 +19°C° 0.1 mm 4 mps 773 mmHg 62%
    15:00 +18°C° 0.1 mm 3 mps 773 mmHg 66%
    16:00 +17°C° 0 mm 3 mps 774 mmHg 69%
    17:00 +16°C° 0 mm 3 mps 774 mmHg 76%
    18:00 +14°C° 0 mm 3 mps 774 mmHg 83%
    19:00 +12°C° 0 mm 3 mps 774 mmHg 90%
    20:00 +12°C° 0.1 mm 3 mps 774 mmHg 90%
    21:00 +12°C° 0.1 mm 3 mps 774 mmHg 91%
    22:00 +13°C° 0 mm 2 mps 775 mmHg 92%
    23:00 +13°C° 0.1 mm 2 mps 774 mmHg 92%

    Tomorrow, 27 June, Thursday

    Time Temperature Precipitation Wind Pressure Humidity
    00:00 +13°C° 0.1 mm 2 mps 774 mmHg 92%
    01:00 +11°C° 0.1 mm 3 mps 774 mmHg 93%
    02:00 +12°C° 0.1 mm 2 mps 774 mmHg 93%
    03:00 +12°C° 0.1 mm 2 mps 774 mmHg 93%
    04:00 +12°C° 0.1 mm 2 mps 774 mmHg 93%
    05:00 +12°C° 0 mm 1 mps 774 mmHg 94%
    06:00 +11°C° 0 mm 1 mps 774 mmHg 95%
    07:00 +11°C° 0 mm 1 mps 775 mmHg 96%
    08:00 +13°C° 0.1 mm 1 mps 775 mmHg 89%
    09:00 +15°C° 0.1 mm 1 mps 775 mmHg 83%
    10:00 +18°C° 0.1 mm 1 mps 775 mmHg 76%
    11:00 +19°C° 0.1 mm 1 mps 774 mmHg 71%
    12:00 +20°C° 0.1 mm 1 mps 774 mmHg 66%
    13:00 +21°C° 0.1 mm 1 mps 773 mmHg 61%
    14:00 +19°C° 0 mm 2 mps 773 mmHg 63%
    15:00 +18°C° 0 mm 2 mps 773 mmHg 66%
    16:00 +18°C° 0 mm 2 mps 773 mmHg 68%
    17:00 +16°C° 0 mm 2 mps 773 mmHg 74%
    18:00 +15°C° 0 mm 2 mps 773 mmHg 79%
    19:00 +14°C° 0 mm 2 mps 774 mmHg 85%
    20:00 +13°C° 0.1 mm 2 mps 774 mmHg 87%
    21:00 +13°C° 0.1 mm 2 mps 774 mmHg 88%
    22:00 +12°C° 0.1 mm 2 mps 774 mmHg 90%
    23:00 +12°C° 0.1 mm 2 mps 774 mmHg 90%

    Day after tomorrow, 28 June, Friday

    Time Temperature Precipitation Wind Pressure Humidity
    00:00 +12°C° 0.1 mm 2 mps 774 mmHg 90%
    01:00 +12°C° 0.1 mm 1 mps 774 mmHg 90%
    02:00 +12°C° 0 mm 1 mps 774 mmHg 92%
    03:00 +12°C° 0 mm 1 mps 773 mmHg 93%
    04:00 +11°C° 0 mm 1 mps 773 mmHg 94%
    05:00 +11°C° 0 mm 1 mps 773 mmHg 94%
    06:00 +11°C° 0 mm 1 mps 773 mmHg 94%
    07:00 +11°C° 0 mm 1 mps 774 mmHg 95%
    08:00 +13°C° 0 mm 1 mps 774 mmHg 85%
    09:00 +15°C° 0 mm 1 mps 774 mmHg 75%
    10:00 +19°C° 0 mm 1 mps 774 mmHg 65%
    11:00 +19°C° 0 mm 1 mps 773 mmHg 61%
    12:00 +19°C° 0 mm 2 mps 772 mmHg 56%
    13:00 +20°C° 0 mm 2 mps 771 mmHg 52%
    14:00 +19°C° 0 mm 3 mps 771 mmHg 57%
    15:00 +19°C° 0 mm 3 mps 771 mmHg 61%
    16:00 +18°C° 0 mm 4 mps 770 mmHg 66%
    17:00 +17°C° 0 mm 4 mps 770 mmHg 73%
    18:00 +14°C° 0 mm 4 mps 771 mmHg 81%
    19:00 +12°C° 0 mm 4 mps 771 mmHg 89%
    20:00 +12°C° 0 mm 4 mps 771 mmHg 90%
    21:00 +12°C° 0 mm 4 mps 771 mmHg 91%
    22:00 +11°C° 0 mm 4 mps 771 mmHg 92%
    23:00 +11°C° 0 mm 3 mps 771 mmHg 93%

    29 June, Saturday

    Time Temperature Precipitation Wind Pressure Humidity
    00:00 +11°C° 0 mm 3 mps 771 mmHg 94%
    01:00 +10°C° 0 mm 3 mps 770 mmHg 94%
    02:00 +10°C° 0 mm 3 mps 770 mmHg 94%
    03:00 +10°C° 0 mm 3 mps 770 mmHg 95%
    04:00 +9°C° 0 mm 2 mps 769 mmHg 95%
    05:00 +9°C° 0 mm 2 mps 769 mmHg 95%
    06:00 +9°C° 0 mm 2 mps 769 mmHg 95%
    07:00 +8°C° 0 mm 2 mps 770 mmHg 95%
    08:00 +10°C° 0 mm 2 mps 769 mmHg 87%
    09:00 +13°C° 0 mm 2 mps 769 mmHg 78%
    10:00 +15°C° 0 mm 2 mps 769 mmHg 69%
    11:00 +17°C° 0 mm 2 mps 768 mmHg 65%
    12:00 +19°C° 0 mm 2 mps 767 mmHg 60%
    13:00 +21°C° 0 mm 2 mps 766 mmHg 55%
    14:00 +20°C° 0 mm 2 mps 766 mmHg 59%
    15:00 +19°C° 0 mm 2 mps 765 mmHg 62%
    16:00 +18°C° 0 mm 2 mps 765 mmHg 66%
    17:00 +17°C° 0 mm 3 mps 764 mmHg 71%
    18:00 +15°C° 0 mm 4 mps 764 mmHg 76%
    19:00 +13°C° 0 mm 4 mps 764 mmHg 81%
    20:00 +13°C° 0 mm 4 mps 764 mmHg 84%
    21:00 +12°C° 0 mm 4 mps 764 mmHg 87%
    22:00 +12°C° 0 mm 4 mps 763 mmHg 91%
    23:00 +12°C° 0 mm 4 mps 763 mmHg 91%

    30 June, Sunday

    Time Temperature Precipitation Wind Pressure Humidity
    00:00 +11°C° 0 mm 4 mps 762 mmHg 90%
    01:00 +11°C° 0 mm 4 mps 762 mmHg 90%
    02:00 +11°C° 0 mm 4 mps 762 mmHg 86%
    03:00 +12°C° 0 mm 4 mps 762 mmHg 82%
    04:00 +12°C° 0 mm 4 mps 762 mmHg 78%
    05:00 +12°C° 0.1 mm 3 mps 763 mmHg 75%
    06:00 +12°C° 0.1 mm 3 mps 763 mmHg 72%
    07:00 +12°C° 0.1 mm 3 mps 764 mmHg 68%
    08:00 +12°C° 0 mm 4 mps 764 mmHg 64%
    09:00 +13°C° 0 mm 4 mps 765 mmHg 59%
    10:00 +14°C° 0 mm 5 mps 765 mmHg 55%
    11:00 +15°C° 0 mm 5 mps 765 mmHg 51%
    12:00 +15°C° 0 mm 4 mps 764 mmHg 47%
    13:00 +17°C° 0 mm 4 mps 764 mmHg 43%
    14:00 +17°C° 0 mm 3 mps 764 mmHg 44%
    15:00 +17°C° 0 mm 3 mps 764 mmHg 45%
    16:00 +16°C° 0 mm 3 mps 763 mmHg 46%
    17:00 +14°C° 0 mm 3 mps 764 mmHg 50%
    18:00 +12°C° 0 mm 3 mps 765 mmHg 53%
    19:00 +10°C° 0 mm 3 mps 765 mmHg 56%
    20:00 +9°C° 0 mm 3 mps 766 mmHg 60%
    21:00 +8°C° 0 mm 3 mps 766 mmHg 64%
    22:00 +7°C° 0 mm 3 mps 766 mmHg 68%
    23:00 +7°C° 0 mm 3 mps 767 mmHg 71%

    1 July, Monday

    Time Temperature Precipitation Wind Pressure Humidity
    00:00 +5°C° 0 mm 3 mps 767 mmHg 73%
    01:00 +6°C° 0 mm 2 mps 767 mmHg 76%
    02:00 +6°C° 0 mm 2 mps 767 mmHg 78%
    03:00 +5°C° 0 mm 2 mps 767 mmHg 80%
    04:00 +5°C° 0 mm 2 mps 767 mmHg 83%
    05:00 +5°C° 0 mm 2 mps 767 mmHg 83%
    06:00 +4°C° 0 mm 2 mps 767 mmHg 84%
    07:00 +4°C° 0 mm 2 mps 768 mmHg 85%
    08:00 +6°C° 0 mm 2 mps 768 mmHg 76%
    09:00 +9°C° 0 mm 2 mps 768 mmHg 66%
    10:00 +12°C° 0 mm 1 mps 767 mmHg 57%
    11:00 +14°C° 0 mm 1 mps 767 mmHg 53%
    12:00 +15°C° 0 mm 1 mps 766 mmHg 48%
    13:00 +18°C° 0 mm 1 mps 765 mmHg 44%
    14:00 +16°C° 0 mm 1 mps 765 mmHg 48%
    15:00 +16°C° 0 mm 1 mps 765 mmHg 53%
    16:00 +15°C° 0 mm 2 mps 765 mmHg 58%
    17:00 +13°C° 0 mm 2 mps 765 mmHg 66%
    18:00 +11°C° 0 mm 3 mps 765 mmHg 73%
    19:00 +9°C° 0 mm 3 mps 766 mmHg 81%
    20:00 +9°C° 0 mm 3 mps 765 mmHg 82%
    21:00 +8°C° 0 mm 3 mps 765 mmHg 83%
    22:00 +8°C° 0 mm 3 mps 765 mmHg 84%
    23:00 +7°C° 0 mm 3 mps 765 mmHg 84%
    Show more